Oakland, MD

12:24 AM EDT on May 01, 2017 (GMT -0400)
Oakland

Weather History for K2G4 - November, 2013

Change the Weather History Date:

Wednesday, November 27, 2013

  Actual Average (KMGW) Record (KMGW)
Temperature  
Mean Temperature 23 °F -  
Max Temperature 32 °F 53 °F 77 °F (1990)
Min Temperature 14 °F 36 °F 15 °F (1977)
Degree Days  
Heating Degree Days 42    
Moisture  
Dew Point 24 °F    
Average Humidity 100    
Maximum Humidity 100    
Minimum Humidity 93    
Precipitation  
Precipitation 0.00 in - - ()
Sea Level Pressure  
Sea Level Pressure 29.68 in    
Wind  
Wind Speed 6 mph (WNW)    
Max Wind Speed 9 mph    
Max Gust Speed 18 mph    
Visibility 2 miles    
Events Fog    
Averages and records for this station are not official NWS values.
T = Trace of Precipitation, MM = Missing Value Source: NWS Daily Summary

Daily Weather History Graph

Daily Weather History Graph

Search for Another Location

Airport or City:

Trip Planner

Search our weather history database for the weather conditions in past years. The results will help you decide how hot, cold, wet, or windy it might be!

Date:

Astronomy

Nov. 27, 2013 Rise Set
Actual Time 7:14 AM EST 4:54 PM EST
Civil Twilight 6:45 AM EST 5:24 PM EST
Nautical Twilight 6:12 AM EST 5:57 PM EST
Astronomical Twilight 5:39 AM EST 6:30 PM EST
Moon 1:16 AM EST (11/27) 1:30 PM EST (11/27)
Length of Visible Light 10h 39m
Length of Day
9h 39m
Waning Crescent, 32% of the Moon is Illuminated
Nov 27
Waning Crescent
Dec 2
New
Dec 9
First Quarter
Dec 17
Full
Dec 25
Last Quarter

Hourly Weather History & Observations

Time (EST) Temp. Windchill Dew Point Humidity Pressure Visibility Wind Dir Wind Speed Gust Speed Precip Events Conditions
12:05 AM 32.0 °F 28.7 °F 32.0 °F 100% 29.61 in 0.8 mi West 3.5 mph - N/A   Overcast
12:25 AM 32.0 °F 27.5 °F 32.0 °F 100% 29.61 in 0.2 mi West 4.6 mph - N/A Fog Fog
12:45 AM 32.0 °F 28.7 °F 32.0 °F 100% 29.60 in 0.2 mi WNW 3.5 mph - N/A Fog Fog
1:05 AM 32.0 °F 25.6 °F 32.0 °F 100% 29.60 in 0.2 mi West 6.9 mph - N/A Fog Fog
1:25 AM 32.0 °F 25.6 °F 32.0 °F 100% 29.59 in 0.2 mi WNW 6.9 mph - N/A Fog Light Freezing Fog
1:45 AM 30.2 °F 23.4 °F 30.2 °F 100% 29.61 in 0.2 mi WNW 6.9 mph - N/A Fog Light Freezing Fog
2:05 AM 30.2 °F 24.3 °F 30.2 °F 100% 29.62 in 0.2 mi West 5.8 mph - N/A Fog Light Freezing Fog
2:25 AM 28.4 °F 23.3 °F 28.4 °F 100% 29.61 in 0.2 mi WNW 4.6 mph - N/A Fog Light Freezing Fog
2:45 AM 28.4 °F 22.2 °F 28.4 °F 100% 29.61 in 0.2 mi West 5.8 mph - N/A Fog Light Freezing Fog
3:05 AM 28.4 °F 23.3 °F 28.4 °F 100% 29.60 in 0.5 mi WNW 4.6 mph - N/A Fog Light Freezing Fog
3:25 AM 28.4 °F 22.2 °F 28.4 °F 100% 29.61 in 1.0 mi WNW 5.8 mph - N/A   Overcast
3:45 AM 28.4 °F 22.2 °F 28.4 °F 100% 29.60 in 0.5 mi WNW 5.8 mph - N/A Fog Light Freezing Fog
4:05 AM 28.4 °F 20.4 °F 28.4 °F 100% 29.60 in 3.0 mi WNW 8.1 mph - N/A   Overcast
4:25 AM 28.4 °F 22.2 °F 28.4 °F 100% 29.59 in 3.0 mi WNW 5.8 mph - N/A   Overcast
4:45 AM 26.6 °F 19.1 °F 26.6 °F 100% 29.61 in 2.5 mi West 6.9 mph - N/A   Overcast
5:05 AM 26.6 °F 20.0 °F 26.6 °F 100% 29.59 in 3.0 mi NW 5.8 mph - N/A   Overcast
5:25 AM 26.6 °F 19.1 °F 26.6 °F 100% 29.61 in 2.0 mi WNW 6.9 mph - N/A   Overcast
5:45 AM 26.6 °F 21.2 °F 26.6 °F 100% 29.60 in 3.0 mi NW 4.6 mph - N/A   Overcast
6:05 AM 26.6 °F 17.5 °F 26.6 °F 100% 29.61 in 4.0 mi WNW 9.2 mph - N/A   Overcast
6:25 AM 26.6 °F 18.2 °F 26.6 °F 100% 29.61 in 1.8 mi WNW 8.1 mph - N/A   Overcast
6:45 AM 26.6 °F 18.2 °F 26.6 °F 100% 29.61 in 0.5 mi WNW 8.1 mph - N/A Fog Light Freezing Fog
7:05 AM 26.6 °F 20.0 °F 26.6 °F 100% 29.62 in 0.5 mi WNW 5.8 mph - N/A Fog Light Freezing Fog
7:25 AM 26.6 °F 19.1 °F 26.6 °F 100% 29.62 in 0.2 mi WNW 6.9 mph - N/A Fog Light Freezing Fog
7:45 AM 26.6 °F 19.1 °F 26.6 °F 100% 29.63 in 0.2 mi WNW 6.9 mph - N/A Fog Light Freezing Fog
8:05 AM 26.6 °F 18.2 °F 26.6 °F 100% 29.63 in 0.2 mi WNW 8.1 mph - N/A Fog Light Freezing Fog
8:25 AM 26.6 °F 20.0 °F 26.6 °F 100% 29.63 in 3.0 mi NW 5.8 mph - N/A   Overcast
8:45 AM 26.6 °F 20.0 °F 26.6 °F 100% 29.63 in 2.0 mi NW 5.8 mph - N/A   Overcast
9:05 AM 26.6 °F 20.0 °F 26.6 °F 100% 29.65 in 1.5 mi WNW 5.8 mph - N/A   Overcast
9:25 AM 26.6 °F 19.1 °F 26.6 °F 100% 29.64 in 1.0 mi WNW 6.9 mph - N/A   Overcast
9:45 AM 26.6 °F 19.1 °F 26.6 °F 100% 29.64 in 0.5 mi WNW 6.9 mph - N/A Fog Light Freezing Fog
10:05 AM 26.6 °F 19.1 °F 26.6 °F 100% 29.63 in 0.8 mi WNW 6.9 mph - N/A   Overcast
10:25 AM 26.6 °F 18.2 °F 26.6 °F 100% 29.63 in 0.8 mi WNW 8.1 mph - N/A   Overcast
10:45 AM 26.6 °F 18.2 °F 26.6 °F 100% 29.62 in 0.5 mi NW 8.1 mph - N/A Fog Light Freezing Fog
11:05 AM 26.6 °F 19.1 °F 26.6 °F 100% 29.60 in 1.0 mi WNW 6.9 mph - N/A   Overcast
11:25 AM 26.6 °F 17.5 °F 26.6 °F 100% 29.56 in 0.5 mi NW 9.2 mph - N/A Fog Light Freezing Fog
11:45 AM 26.6 °F 18.2 °F 26.6 °F 100% 29.58 in 0.8 mi WNW 8.1 mph - N/A   Overcast
12:05 PM 26.6 °F 19.1 °F 26.6 °F 100% 29.59 in 0.2 mi WNW 6.9 mph - N/A Fog Light Freezing Fog
12:25 PM 26.6 °F 19.1 °F 26.6 °F 100% 29.58 in 0.5 mi WNW 6.9 mph - N/A Fog Light Freezing Fog
12:45 PM 26.6 °F 18.2 °F 26.6 °F 100% 29.60 in 1.8 mi NW 8.1 mph - N/A   Overcast
1:05 PM 24.8 °F 16.9 °F 24.8 °F 100% 29.60 in 4.0 mi NW 6.9 mph - N/A   Overcast
1:25 PM 24.8 °F 16.9 °F 24.8 °F 100% 29.60 in 2.5 mi NW 6.9 mph - N/A   Overcast
1:45 PM 24.8 °F 16.1 °F 24.8 °F 100% 29.61 in 2.5 mi WNW 8.1 mph - N/A   Overcast
2:05 PM 23.0 °F 14.7 °F 23.0 °F 100% 29.62 in 2.5 mi NW 6.9 mph - N/A   Overcast
2:25 PM 23.0 °F 13.1 °F 23.0 °F 100% 29.63 in 1.0 mi WNW 9.2 mph - N/A   Overcast
2:45 PM 23.0 °F 14.7 °F 23.0 °F 100% 29.65 in 1.0 mi NW 6.9 mph - N/A   Overcast
3:05 PM 23.0 °F 15.8 °F 23.0 °F 100% 29.67 in 1.8 mi NW 5.8 mph - N/A   Overcast
3:25 PM 21.2 °F 14.9 °F 21.2 °F 100% 29.68 in 0.8 mi NW 4.6 mph - N/A   Overcast
3:45 PM 21.2 °F 12.6 °F 21.2 °F 100% 29.69 in 2.0 mi NW 6.9 mph - N/A   Overcast
4:05 PM 21.2 °F 13.6 °F 21.2 °F 100% 29.71 in 1.2 mi NW 5.8 mph - N/A   Overcast
4:25 PM 19.4 °F 9.5 °F 19.4 °F 100% 29.71 in 1.0 mi NW 8.1 mph - N/A   Overcast
4:45 PM 19.4 °F 9.5 °F 19.4 °F 100% 29.72 in 0.5 mi NW 8.1 mph - N/A Fog Light Freezing Fog
5:05 PM 19.4 °F 10.4 °F 19.4 °F 100% 29.73 in 1.0 mi West 6.9 mph - N/A   Overcast
5:25 PM 19.4 °F 10.4 °F 19.4 °F 100% 29.75 in 1.0 mi WNW 6.9 mph - N/A   Mostly Cloudy
5:45 PM 19.4 °F 11.5 °F 19.4 °F 100% 29.76 in 1.0 mi WNW 5.8 mph - N/A   Overcast
6:05 PM 17.6 °F 8.2 °F 17.6 °F 100% 29.77 in 2.5 mi WNW 6.9 mph - N/A   Overcast
6:25 PM 17.6 °F 7.3 °F 17.6 °F 100% 29.78 in 5.0 mi WNW 8.1 mph 17.3 mph N/A   Overcast
6:45 PM 17.6 °F 7.3 °F 17.6 °F 100% 29.79 in 2.5 mi WNW 8.1 mph - N/A   Overcast
7:25 PM 15.8 °F 5.1 °F 15.8 °F 100% 29.83 in 4.0 mi WNW 8.1 mph - N/A   Overcast
7:45 PM 15.8 °F 6.1 °F 15.8 °F 100% 29.84 in 10.0 mi WNW 6.9 mph - N/A   Overcast
8:05 PM 15.8 °F 6.1 °F 15.8 °F 100% 29.84 in 10.0 mi West 6.9 mph - N/A   Overcast
8:25 PM 14.0 °F 3.9 °F 14.0 °F 100% 29.85 in 10.0 mi West 6.9 mph - N/A   Overcast
8:45 PM 14.0 °F 3.9 °F 14.0 °F 100% 29.85 in 10.0 mi West 6.9 mph - N/A   Overcast
9:05 PM 14.0 °F 2.0 °F 14.0 °F 100% 29.85 in 10.0 mi West 9.2 mph 16.1 mph N/A   Overcast
9:25 PM 14.0 °F 2.9 °F 14.0 °F 100% 29.85 in 10.0 mi West 8.1 mph 18.4 mph N/A   Overcast
9:45 PM 14.0 °F 2.0 °F 14.0 °F 100% 29.87 in 10.0 mi West 9.2 mph - N/A   Overcast
10:05 PM 14.0 °F 3.9 °F 14.0 °F 100% 29.88 in 10.0 mi West 6.9 mph 16.1 mph N/A   Overcast
10:25 PM 14.0 °F 2.9 °F 14.0 °F 100% 29.90 in 4.0 mi West 8.1 mph 17.3 mph N/A   Overcast
10:45 PM 14.0 °F 2.9 °F 14.0 °F 100% 29.91 in 5.0 mi West 8.1 mph - N/A   Overcast
11:05 PM 15.8 °F 4.2 °F 15.8 °F 100% 29.92 in 2.5 mi West 9.2 mph - N/A   Overcast
11:25 PM 15.8 °F 4.2 °F 15.8 °F 100% 29.93 in 2.0 mi West 9.2 mph - N/A   Overcast
11:45 PM 15.8 °F 5.1 °F 14.0 °F 93% 29.94 in 5.0 mi West 8.1 mph - N/A   Overcast